Regional Weather Roundup
Issued by NWS

Home | Current Version | Previous Version | Graphics & Text | Print | Product List | Glossary Off
Versions: 1 2 3 4 5 6 7 8 9 10 11 12 13 14 15 16 17 18 19 20 21 22 23 24 25 26 27 28 29 30 31 32 33 34 35 36 37 38 39 40 41 42 43 44 45 46 47 48 49 50

000
ASUS43 KDTX 271201
RWRMI
MICHIGAN HOURLY REGIONAL WEATHER ROUNDUP
NATIONAL WEATHER SERVICE DETROIT/PONTIAC MI
800 AM EDT WED JUL 27 2016

NOTE: "FAIR" INDICATES FEW OR NO CLOUDS BELOW 12,000 FEET WITH NO
SIGNIFICANT WEATHER AND/OR OBSTRUCTION TO VISIBILITY.

MIZ047>049-052>055-059>063-066>070-074>076-081>083-271300-
SOUTHEAST LOWER MICHIGAN

CITY           SKY/WX    TMP DP  RH WIND       PRES   REMARKS
ADRIAN         SUNNY     68  64  87 CALM      30.05S
6HR MIN TEMP:  61; 6HR MAX TEMP:  68;

ALMA           CLOUDY    69  65  89 SW5       30.02R
ANN ARBOR      SUNNY     66  65  96 CALM      30.03S
BAD AXE        MOSUNNY   69  62  79 SW3       30.00R
CARO           SUNNY     66  63  90 CALM      30.00S
DETROIT CITY   SUNNY     73  64  73 W3        30.02S
6HR MIN TEMP:  69; 6HR MAX TEMP:  74;

DETROIT        SUNNY     74  63  68 CALM      30.03S
6HR MIN TEMP:  67; 6HR MAX TEMP:  74;

FLINT          SUNNY     71  63  75 SW6       30.02S
6HR MIN TEMP:  63; 6HR MAX TEMP:  71;

GROSSE ILE     SUNNY     73  64  75 CALM      30.01F
6HR MIN TEMP:  67; 6HR MAX TEMP:  73;

HOWELL         SUNNY     68  65  89 SW3       30.03S
6HR MIN TEMP:  64; 6HR MAX TEMP:  68;


CITY           SKY/WX    TMP DP  RH WIND       PRES   REMARKS
JACKSON        SUNNY     68  66  93 CALM      30.05S
6HR MIN TEMP:  60; 6HR MAX TEMP:  68;

LAMBERTVILLE   SUNNY     70  65  85 CALM      30.03S
6HR MIN TEMP:  62; 6HR MAX TEMP:  70;

LANSING        SUNNY     70  61  73 W3        30.03S
6HR MIN TEMP:  64; 6HR MAX TEMP:  70;

LAPEER         FAIR      68  65  89 CALM      30.02S
6HR MIN TEMP:  59; 6HR MAX TEMP:  68;

MASON          SUNNY     67  65  91 N6        30.04S
MONROE         SUNNY     69  65  86 CALM      30.02F
6HR MIN TEMP:  61; 6HR MAX TEMP:  69;

MT. CLEMENS    SUNNY     74  64  70 W3        30.00S
6HR MIN TEMP:  65; 6HR MAX TEMP:  74;

PONTIAC        MOSUNNY   71  64  78 CALM      30.02S
6HR MIN TEMP:  66; 6HR MAX TEMP:  72;

PORT HURON     SUNNY     66  66 100 CALM      30.01S
TRI CITIES     MOSUNNY   68  63  84 SW7       30.00S
6HR MIN TEMP:  65; 6HR MAX TEMP:  70;

MIDLAND        FAIR      68  62  82 SW3       29.99S
6HR MIN TEMP:  61; 6HR MAX TEMP:  68;

TROY           SUNNY     73  63  72 CALM      30.04S
SAGINAW HB     MOSUNNY   70  63  78 SW6       29.99S
$$
MIZ043>046-050>051-056>058-064>065-071>073-077>080-271300-
SOUTHWEST LOWER MICHIGAN

CITY           SKY/WX    TMP DP  RH WIND       PRES   REMARKS
BATTLE CREEK   SUNNY     66  66 100 CALM      30.05R
6HR MIN TEMP:  62; 6HR MAX TEMP:  66;

BENTON HARBOR  SUNNY     68  64  87 CALM      30.03R
6HR MIN TEMP:  61; 6HR MAX TEMP:  68;

BIG RAPIDS     SUNNY     68  68 100 CALM      30.01R
6HR MIN TEMP:  62; 6HR MAX TEMP:  68;

COLDWATER      SUNNY     68  67  96 CALM      30.05R
6HR MIN TEMP:  62; 6HR MAX TEMP:  68;

FREMONT        FAIR      67  67 100 CALM      30.01R
HOLLAND        SUNNY     67  65  93 CALM      30.03S
6HR MIN TEMP:  61; 6HR MAX TEMP:  67;

GRAND RAPIDS   MOSUNNY   69  63  81 SW3       30.03S
6HR MIN TEMP:  62; 6HR MAX TEMP:  69;

IONIA          FAIR      68  62  80 SW5       30.02S
6HR MIN TEMP:  63; 6HR MAX TEMP:  68;

KALAMAZOO      SUNNY     68  65  90 CALM      30.05R
6HR MIN TEMP:  61; 6HR MAX TEMP:  68;

LUDINGTON      SUNNY     74  70  86 SW7       29.98F
6HR MIN TEMP:  72; 6HR MAX TEMP:  74;

MARSHALL       SUNNY     67  67  98 CALM      30.05R
6HR MIN TEMP:  62; 6HR MAX TEMP:  67;

MOUNT PLEASANT SUNNY     72  63  73 SW6       29.99R
6HR MIN TEMP:  65; 6HR MAX TEMP:  72;

MUSKEGON       MOSUNNY   73  72  96 SW7       30.01S
6HR MIN TEMP:  67; 6HR MAX TEMP:  73;

SOUTH HAVEN    SUNNY     65  64  97 CALM      30.03S
$$
MIZ016>042-271300-
NORTHERN LOWER MICHIGAN

CITY           SKY/WX    TMP DP  RH WIND       PRES   REMARKS
ALPENA         CLOUDY    71  61  70 W6        29.96R
6HR MIN TEMP:  65; 6HR MAX TEMP:  73;

BEAVER ISLAND  CLOUDY    69  65  87 CALM      29.96R
6HR MIN TEMP:  68; 6HR MAX TEMP:  72;

BELLAIRE       MOSUNNY   70  64  81 CALM      29.98R
6HR MIN TEMP:  63; 6HR MAX TEMP:  73;

CADILLAC       SUNNY     70  64  81 SW3       30.01S
CHARLEVOIX     PTSUNNY   72  66  83 CALM      29.99S
6HR MIN TEMP:  70; 6HR MAX TEMP:  76;

FRANKFORT      SUNNY     72  67  84 SE3       29.98R
GAYLORD        SUNNY     71  62  73 W5        29.99S
6HR MIN TEMP:  68; 6HR MAX TEMP:  71;

GRAYLING       SUNNY     70  62  76 SW5       29.99S
HARBOR SPRINGS PTSUNNY   70  65  84 CALM      29.96R
HOUGHTON LAKE  SUNNY     71  62  73 W8        30.00S
6HR MIN TEMP:  69; 6HR MAX TEMP:  72;

MANISTEE       SUNNY     69  65  86 CALM      29.98S
OSCODA         MOSUNNY   70  61  73 SW3       29.95S
6HR MIN TEMP:  65; 6HR MAX TEMP:  71;

PELLSTON       CLOUDY    69  65  86 NW6       29.96S
6HR MIN TEMP:  65; 6HR MAX TEMP:  74;

ROGERS CITY    SUNNY     70  65  83 W3        29.97R
TRAVERSE CITY  PTSUNNY   73  66  78 W5        29.97R
6HR MIN TEMP:  71; 6HR MAX TEMP:  75;

$$
MIZ007>008-015-271300-
EASTERN UPPER MICHIGAN

CITY           SKY/WX    TMP DP  RH WIND       PRES   REMARKS
KINROSS        CLOUDY    66  65  96 N9        29.96R
6HR MIN TEMP:  63; 6HR MAX TEMP:  67;

MACKINAC ISLAN CLOUDY    68  68 100 SW3       29.95S
6HR MIN TEMP:  65; 6HR MAX TEMP:  71;

S. S. MARIE    CLOUDY    67  66  97 CALM      29.94R
6HR MIN TEMP:  63; 6HR MAX TEMP:  67;

$$
MIZ004>006-011>014-085-271300-
CENTRAL UPPER MICHIGAN

CITY           SKY/WX    TMP DP  RH WIND       PRES   REMARKS
MANISTIQUE     PTSUNNY   67  66  97 N3        29.95R
6HR MIN TEMP:  63; 6HR MAX TEMP:  67;

ESCANABA       PTSUNNY   66  64  94 W5        29.95R
6HR MIN TEMP:  66; 6HR MAX TEMP:  70;

MENOMINEE      SUNNY    N/A N/A N/A W3        29.98R
SAWYER-GWINN   SUNNY     66  63  88 SW3       29.97R
$$
MIZ001>003-009>011-084-271300-
WESTERN UPPER MICHIGAN

CITY           SKY/WX    TMP DP  RH WIND       PRES   REMARKS
IRON MOUNTAIN  PTSUNNY   65  61  87 CALM      29.98R
6HR MIN TEMP:  64; 6HR MAX TEMP:  68; 6HR PCP: TRACE;

HOUGHTON       CLOUDY    65  56  72 NE7       29.97S
6HR MIN TEMP:  61; 6HR MAX TEMP:  67;

IRONWOOD       CLOUDY    66  66 100 CALM      29.98R
6HR MIN TEMP:  64; 6HR MAX TEMP:  70;

$$

ABBREVIATIONS USED IN REMARKS
   TC - TEMPERATURE IN CELSIUS
  WCI - WIND CHILL INDEX
   HX - HEAT INDEX
  VSB - VISIBILITY





USA.gov is the U.S. government's official web portal to all federal, state and local government web resources and services.